Location: Fours
(44.3167°N, 6.7000°E)
Time: 10:41:39
(UTC+00:00)

Okean O Rocket - Pass Details

Date: 16 October 2021
Orbit: 623 x 643 km, 98.2° (Epoch: 03 December)

Event Time Altitude Azimuth Distance (km) Brightness Sun altitude
Rises 17:54:58 0° 172° (S) 2,891 4.9 -12.9°
Reaches altitude 10° 17:57:09 10° 175° (S) 1,988 4.1 -13.3°
Maximum altitude 18:01:27 67° 258° (WSW) 680 2.0 -14.0°
Drops below altitude 10° 18:05:48 10° 341° (NNW) 2,007 4.4 -14.8°
Sets 18:08:01 0° 344° (NNW) 2,920 5.3 -15.2°
